Vorticity
6 7 8 9 9 8 8 7 8 8 9 9 8 7 7 7 6 5 3 5 7 6 10 9 6 4 4 3 3 3 4 4 4 2 3 3 3 3 3 3 4 6 7
2 1 3 4 5 6 6 6 6 6 7 8 8 8 7 6 5 5 4 5 8 7 10 9 6 5 4 3 2 3 4 4 3 3 4 2 2 4 4 4 3 2 6
2 1 1 1 3 4 5 5 5 5 8 7 7 8 8 7 5 6 5 5 7 9 9 7 5 4 4 5 4 3 3 2 3 3 5 5 4 2 3 4 5 5 3
2 1 2 2 1 2 3 3 4 4 5 6 7 7 7 8 7 7 5 5 9 9 7 5 4 4 5 4 3 2 2 2 3 4 4 3 4 5 6 7 6 6 4
2 3 2 3 3 2 1 2 5 6 4 6 7 6 8 7 7 10 3 7 9 7 5 4 5 4 3 3 3 2 3 3 4 4 4 4 7 6 4 4 4 4 5
4 2 2 3 3 -1 2 2 4 4 6 7 7 7 6 7 10 5 5 7 8 6 5 4 2 2 4 3 2 4 6 6 5 4 6 6 5 5 5 6 7 5 5
3 4 5 4 1 -0 2 1 0 8 8 9 9 8 9 7 7 5 6 8 7 3 1 1 3 2 3 4 5 6 6 6 7 6 8 8 6 4 6 7 7 7 7
4 2 4 1 -1 1 1 1 2 16 4 8 8 9 6 8 6 6 7 7 3 2 3 3 2 4 5 6 8 7 7 8 8 9 8 9 9 9 9 10 9 9 7
-5 1 1 -1 1 1 1 -4 3 13 6 7 9 8 7 6 6 7 5 3 1 2 3 3 4 7 7 7 9 10 10 9 8 7 7 9 8 5 1 5 8 12 9
2 4 7 2 5 4 0 2 37 1 8 8 9 7 6 6 5 5 3 2 1 3 3 4 7 7 9 10 8 6 7 6 6 8 8 -0 3 8 9 11 8 11 11
-2 2 -0 1 3 12 4 20 5 5 8 8 8 6 7 6 4 3 3 4 4 6 6 8 9 9 9 7 8 7 7 9 7 3 6 5 6 9 11 11 15 20 24
3 -0 3 6 4 15 13 14 6 6 8 8 5 7 5 4 2 3 2 3 3 6 10 10 9 8 8 9 8 8 5 3 5 8 8 8 12 13 15 19 20 22 22
-5 2 6 11 22 13 16 4 7 8 8 6 6 6 4 2 3 3 4 3 4 7 7 5 8 7 6 5 3 4 6 7 6 11 11 13 14 19 22 20 19 17 20
1 17 55 3 10 6 4 7 7 7 6 6 6 3 3 3 3 4 3 5 8 12 7 9 5 4 2 4 4 8 9 9 12 12 12 17 21 21 19 20 19 18 19
23 4 2 6 5 5 9 8 6 6 6 5 3 3 3 4 4 5 9 11 8 7 5 7 5 0 2 5 9 11 12 11 12 15 18 16 16 18 19 18 18 18 16
7 5 6 3 6 6 8 7 6 6 4 3 3 3 5 5 9 8 9 5 7 6 9 4 3 6 6 11 10 15 14 14 19 19 18 17 16 14 12 11 12 13 13
1 1 -1 5 8 6 7 6 6 3 3 3 4 5 7 10 7 6 6 6 7 6 2 2 8 9 13 11 14 15 19 19 15 15 14 14 17 22 26 25 20 12 9
3 0 5 10 7 6 6 5 3 4 3 4 6 8 8 6 6 6 5 7 2 1 5 8 13 14 15 14 18 21 18 18 17 19 28 31 25 19 17 16 19 27 23
2 5 11 7 5 6 5 5 3 3 5 6 7 8 6 5 5 6 5 3 4 6 10 11 12 15 17 21 20 19 18 23 31 26 14 11 12 11 10 10 10 14 18
6 10 7 5 7 5 5 2 3 5 6 6 8 5 5 4 9 4 3 5 6 12 12 12 15 22 23 20 17 20 28 19 11 12 15 17 21 24 20 18 19 20 16
8 5 6 7 5 3 2 4 6 7 7 8 5 5 6 7 3 5 5 6 11 12 14 21 24 22 16 18 25 20 9 9 20 23 25 20 16 16 16 20 19 16 15
4 7 7 3 3 3 5 7 6 8 6 4 3 9 4 5 4 5 8 14 15 17 26 22 19 16 21 25 11 9 21 39 27 14 10 16 22 21 21 33 38 34 32
7 5 3 3 4 5 7 7 7 5 4 4 10 4 5 3 5 9 13 16 25 24 17 16 16 23 18 9 19 29 35 13 14 27 28 29 12 14 14 23 26 32 30
3 3 3 4 6 8 8 6 6 3 6 7 5 4 4 7 6 12 19 28 21 19 15 18 22 12 17 31 26 34 12 9 17 23 19 25 14 17 12 9 13 17 25
2 4 6 8 8 7 6 5 3 8 6 5 4 5 6 5 16 19 26 21 20 15 21 19 11 32 28 27 24 19 6 3 10 26 17 19 15 22 8 7 9 6 15
6 6 8 8 7 6 4 3 7 5 5 3 6 6 9 18 19 20 21 20 16 21 17 16 34 25 14 17 13 13 12 10 8 20 26 28 11 22 20 10 9 3 19
Height
5840 5840 5839 5839 5838 5837 5836 5835 5833 5832 5830 5828 5826 5825 5824 5822 5819 5817 5815 5813 5810 5808 5806 5803 5800 5798 5796 5794 5792 5789 5787 5784 5782 5780 5778 5776 5774 5772 5770 5768 5766 5764 5761
5836 5836 5835 5834 5833 5832 5831 5830 5828 5826 5825 5823 5821 5819 5818 5816 5814 5811 5809 5806 5804 5801 5798 5796 5793 5791 5789 5786 5784 5781 5778 5776 5773 5771 5769 5767 5765 5763 5761 5759 5757 5755 5753
5831 5831 5831 5830 5829 5828 5826 5825 5823 5821 5819 5817 5816 5813 5811 5809 5807 5805 5802 5799 5796 5793 5791 5788 5786 5783 5780 5777 5775 5772 5770 5767 5764 5761 5758 5756 5754 5752 5750 5747 5745 5744 5743
5827 5827 5826 5825 5824 5823 5821 5820 5818 5816 5814 5811 5809 5807 5805 5802 5800 5797 5794 5791 5788 5785 5782 5780 5777 5774 5771 5768 5765 5762 5759 5755 5752 5749 5746 5744 5741 5739 5737 5734 5732 5731 5729
5821 5821 5821 5820 5819 5817 5816 5814 5812 5810 5807 5804 5802 5800 5798 5795 5792 5790 5786 5783 5780 5777 5774 5771 5768 5764 5761 5757 5754 5750 5747 5743 5740 5736 5733 5729 5726 5724 5722 5720 5718 5716 5715
5815 5815 5815 5814 5812 5811 5810 5807 5805 5803 5800 5797 5795 5792 5789 5787 5784 5781 5778 5775 5771 5768 5765 5761 5758 5754 5750 5745 5741 5737 5733 5729 5725 5721 5717 5713 5710 5707 5705 5703 5701 5699 5698
5808 5808 5808 5807 5806 5804 5803 5801 5798 5795 5793 5790 5787 5784 5781 5778 5775 5772 5769 5766 5762 5758 5755 5750 5746 5742 5737 5732 5727 5722 5717 5712 5707 5703 5699 5695 5692 5689 5686 5683 5681 5680 5678
5799 5801 5801 5800 5798 5797 5795 5793 5790 5787 5784 5782 5778 5775 5772 5770 5766 5762 5758 5755 5751 5747 5743 5738 5734 5728 5723 5717 5712 5706 5700 5695 5689 5685 5681 5676 5673 5669 5666 5663 5660 5657 5656
5792 5792 5792 5791 5789 5788 5787 5784 5782 5779 5775 5772 5769 5766 5763 5760 5757 5753 5749 5745 5740 5737 5731 5725 5719 5714 5709 5703 5696 5689 5683 5677 5671 5666 5661 5656 5652 5647 5644 5640 5636 5633 5629
5782 5783 5783 5782 5780 5780 5778 5775 5772 5770 5767 5763 5760 5757 5753 5749 5746 5742 5737 5733 5728 5723 5717 5711 5704 5698 5691 5685 5678 5671 5664 5657 5651 5646 5640 5634 5629 5624 5618 5613 5608 5603 5599
5773 5773 5773 5772 5772 5771 5768 5766 5763 5762 5758 5754 5751 5747 5743 5739 5734 5730 5725 5720 5714 5706 5700 5692 5685 5679 5673 5666 5660 5652 5644 5636 5630 5624 5617 5609 5603 5596 5590 5583 5577 5573 5570
5764 5764 5763 5763 5762 5761 5757 5756 5753 5751 5748 5744 5741 5737 5732 5728 5723 5718 5714 5708 5703 5695 5685 5675 5667 5660 5653 5646 5639 5632 5624 5615 5607 5599 5591 5582 5574 5566 5560 5555 5551 5549 5549
5752 5752 5753 5750 5752 5751 5749 5746 5744 5741 5738 5734 5730 5725 5721 5715 5710 5704 5699 5693 5689 5682 5674 5661 5651 5641 5632 5624 5617 5609 5601 5591 5581 5571 5561 5552 5543 5537 5533 5531 5530 5529 5529
5742 5741 5743 5742 5741 5740 5740 5738 5734 5730 5727 5723 5719 5713 5708 5702 5696 5689 5683 5677 5672 5667 5659 5648 5637 5623 5612 5601 5593 5584 5575 5564 5553 5542 5531 5523 5517 5513 5511 5509 5508 5508 5509
5731 5732 5734 5732 5733 5732 5731 5728 5723 5719 5715 5712 5707 5701 5695 5688 5681 5674 5666 5658 5650 5648 5643 5631 5619 5609 5596 5583 5570 5558 5546 5535 5524 5514 5507 5500 5495 5491 5488 5487 5488 5488 5490
5722 5723 5725 5723 5724 5723 5720 5717 5712 5709 5704 5700 5694 5688 5681 5674 5665 5657 5649 5639 5631 5623 5620 5610 5600 5585 5575 5561 5548 5534 5520 5506 5495 5486 5481 5476 5471 5469 5468 5467 5467 5468 5471
5718 5719 5719 5717 5715 5713 5710 5706 5702 5697 5692 5688 5682 5675 5667 5659 5649 5641 5631 5622 5612 5602 5597 5591 5575 5561 5548 5534 5522 5508 5495 5485 5476 5465 5457 5453 5448 5444 5442 5443 5444 5447 5451
5710 5712 5712 5708 5705 5704 5701 5695 5690 5686 5682 5674 5668 5660 5651 5642 5634 5624 5615 5605 5594 5581 5572 5567 5552 5538 5523 5508 5494 5483 5473 5464 5454 5446 5437 5431 5428 5423 5422 5421 5421 5424 5428
5703 5704 5700 5698 5697 5693 5689 5684 5680 5676 5669 5660 5653 5645 5636 5628 5619 5609 5598 5587 5575 5561 5546 5535 5528 5512 5499 5481 5472 5460 5450 5441 5431 5423 5418 5415 5410 5406 5403 5403 5403 5406 5410
5694 5693 5692 5690 5688 5683 5679 5674 5669 5663 5655 5646 5638 5631 5622 5613 5603 5592 5580 5567 5554 5540 5525 5510 5498 5487 5472 5461 5447 5437 5432 5420 5415 5405 5401 5394 5391 5388 5385 5384 5384 5387 5391
5686 5685 5683 5681 5677 5673 5669 5663 5656 5649 5641 5633 5625 5616 5606 5596 5585 5572 5560 5546 5532 5518 5503 5488 5474 5463 5452 5441 5427 5419 5411 5405 5398 5388 5385 5378 5375 5372 5368 5367 5365 5367 5371
5677 5676 5675 5672 5668 5662 5657 5650 5642 5635 5628 5620 5611 5601 5591 5579 5567 5553 5539 5525 5509 5494 5480 5466 5455 5442 5431 5421 5413 5403 5393 5387 5383 5373 5370 5367 5358 5357 5352 5348 5345 5346 5351
5670 5668 5665 5661 5656 5650 5645 5638 5630 5623 5614 5605 5596 5586 5574 5561 5549 5537 5522 5506 5489 5471 5456 5444 5435 5423 5415 5403 5395 5387 5381 5375 5369 5361 5356 5356 5348 5346 5341 5337 5334 5332 5333
5661 5658 5653 5648 5644 5638 5632 5624 5617 5608 5600 5590 5579 5567 5555 5543 5530 5517 5503 5485 5470 5456 5443 5430 5418 5409 5399 5388 5381 5376 5373 5368 5360 5351 5346 5346 5340 5338 5334 5331 5328 5325 5324
5650 5647 5643 5638 5633 5626 5619 5612 5603 5594 5584 5573 5560 5549 5538 5526 5513 5497 5481 5467 5454 5441 5428 5416 5406 5395 5386 5379 5373 5369 5365 5361 5354 5345 5338 5334 5333 5331 5329 5325 5322 5320 5318
5641 5637 5633 5627 5620 5613 5606 5598 5590 5580 5570 5560 5548 5535 5521 5507 5490 5475 5464 5453 5442 5430 5417 5406 5395 5386 5379 5373 5368 5363 5359 5355 5349 5342 5333 5330 5327 5325 5323 5320 5317 5313 5311